www.pogodaiklimat.ru
ПОГОДА в Запад Пойнт
Время
и дата
01:35 23.05
01:55 23.05
02:15 23.05
02:35 23.05
02:55 23.05
03:15 23.05
03:35 23.05
03:55 23.05
04:15 23.05
04:35 23.05
04:55 23.05
05:15 23.05
05:35 23.05
05:55 23.05
06:15 23.05
06:35 23.05
06:55 23.05
07:15 23.05
07:35 23.05
07:55 23.05
08:15 23.05
08:35 23.05
08:55 23.05
09:15 23.05
09:35 23.05
09:55 23.05
10:15 23.05
10:35 23.05
10:55 23.05
11:15 23.05
11:35 23.05
11:55 23.05
12:15 23.05
12:35 23.05
12:55 23.05
13:15 23.05
13:35 23.05
13:55 23.05
14:15 23.05
14:35 23.05
14:55 23.05
15:15 23.05
15:35 23.05
15:55 23.05
16:15 23.05
16:35 23.05
16:55 23.05
17:15 23.05
Ветер
(напр.,м/с)
Видим. Явления Облачность Т
(С)
Тd
(С)
f
(%)
Тe
(С)
Тes
(С)
Комфортность P
(гПа)
Po
(гПа)
Тmin
(С)
Tmax
(С)
R
(мм)
R24
(мм)
S
(см)
штиль 0 0 м н/о +19.5 +18.2 92 +22 +22 комфорт 1018.7
З 1 16 км ясно +20.0 +18.4 91 +24 +24 комфорт 1018.7
штиль 0 0 м н/о +20.6 +18.5 88 +24 +24 комфорт 1018.7
СЗ 1 0 м ясно +21.0 +18.5 86 +26 +26 душно 1019.0
З 1 0 м ясно +21.1 +18.5 85 +25 +25 комфорт 1019.0
штиль 0 16 км ясно +21.2 +18.3 84 +25 +25 комфорт 1019.0
штиль 0 0 м ясно +21.0 +18.4 85 +25 +25 комфорт 1018.7
С 1 0 м н/о +20.7 +18.1 85 +25 +25 комфорт 1019.0
СЗ 1 0 м ясно +20.5 +17.7 84 +25 +25 комфорт 1019.0
СЗ 1 0 м ясно +20.3 +17.4 83 +24 +24 комфорт 1019.4
С 1 0 м ясно +20.1 +17.1 83 +24 +24 комфорт 1019.7
штиль 0 0 м ясно +20.0 +16.5 80 +22 +22 комфорт 1020.0
СЗ 1 16 км ясно +19.6 +16.8 84 +22 +22 комфорт 1020.4
С 1 0 м ясно +19.6 +16.5 82 +22 +22 комфорт 1020.7
С 1 0 м ясно +19.9 +16.3 80 +23 +24 комфорт 1020.7
С 1 0 м ясно +20.1 +16.0 77 +23 +24 комфорт 1021.0
С 1 0 м ясно +19.7 +15.7 78 +22 +23 комфорт 1021.4 +19.4 +21.3
С 1 0 м ясно +20.2 +15.2 73 +23 +26 комфорт 1021.4
СВ 2
{3}
0 м ясно +20.4 +15.4 73 +23 +25 комфорт 1021.4
С 1 0 м 8/8 570 м +20.2 +15.5 74 +23 +24 комфорт 1021.4
С 1
{2}
0 м 10/10 570 м +20.6 +15.9 74 +24 +24 комфорт 1021.4
СВ 2 0 м 10/10 570 м +20.6 +15.8 74 +24 +24 комфорт 1021.7
СВ 1 0 м 10/10 570 м +20.3 +15.7 75 +23 +23 комфорт 1022.1
С 1 16 км 10/10 570 м +20.4 +15.9 75 +24 +24 комфорт 1022.1
С 1 0 м 10/10 570 м +20.1 +15.8 76 +23 +23 комфорт 1022.4
СВ 1 0 м 10/10 630 м +20.6 +16.1 75 +24 +24 комфорт 1022.4
СВ 1 0 м 10/10 750 м +21.3 +16.2 73 +25 +25 комфорт 1022.4
С 2 0 м 10/10 750 м +21.0 +15.9 73 +25 +25 комфорт 1022.4
СВ 2 0 м 10/10 870 м +21.5 +16.0 71 +25 +25 комфорт 1022.4
СВ 2 0 м 10/10 870 м +21.6 +15.7 69 +25 +25 комфорт 1022.4
С 1 0 м 10/10 870 м +22.0 +16.0 69 +26 +26 душно 1022.1
штиль 0 0 м 8/8 870 м +22.5 +15.7 65 +26 +32 жарко 1022.4
СВ 1 0 м 10/10 870 м +21.9 +15.6 67 +26 +26 душно 1022.4
С 1 0 м 10/10 930 м +22.4 +15.6 65 +26 +26 жарко 1022.1
СВ 2 0 м 8/8 930 м
[Ac]
+23.2 +16.0 64 +28 +31 душно 1021.7 +19.8 +23.2
СВ 1 0 м 8/8 870 м +22.6 +15.6 65 +27 +30 душно 1021.4
С 1 0 м 10/10 870 м +22.7 +15.4 63 +27 +27 душно 1021.4
СВ 1 0 м 10/10 930 м +22.6 +15.6 65 +27 +27 душно 1021.4
С 1 0 м 10/10 1650 м +22.5 +15.3 64 +26 +26 жарко 1021.4
С 1 0 м 10/10 1650 м +22.7 +14.8 61 +26 +26 жарко 1021.4
СВ 1 0 м 10/10 1650 м +22.9 +15.0 61 +27 +27 душно 1021.4
СВ 1 0 м 10/10 1650 м +22.6 +14.8 61 +26 +26 жарко 1021.0
СВ 1 0 м 10/10 1650 м +22.3 +14.5 61 +26 +26 жарко 1020.7
СВ 2 0 м 8/5 1500 м
[Ac]
+23.2 +15.6 62 +27 +30 душно 1019.7
СВ 1 0 м 5/0 3600 м
[Ac]
+22.1 +14.7 63 +25 +31 комфорт 1019.7
СВ 1 0 м 8/5 1020 м
[Ac]
+22.0 +14.8 64 +25 +28 комфорт 1020.0
СВ 1 0 м 10/8 1080 м
[Ac]
+21.5 +14.7 65 +25 +25 комфорт 1020.7
С 1 0 м 10/10 1080 м +20.8 +13.8 64 +24 +24 комфорт 1021.0
Местоположение метеостанции Middle Peninsula Regional Airport: широта 37.5211 долгота -76.7644 высота над уровнем моря 7 м.
В архиве по умолчанию представлена погода в Запад Пойнт за последние 1-2 суток. Обновление информации о фактической погоде в базе происходит ежечасно! Архивные данные за месяц целиком и за предыдущие месяцы Вы можете получить, выбрав интересующий диапазон дат из раскрывающегося списка и нажав кнопку "Ввод!".
Внимание! Архив погоды МЕТАР в базе сайта по станциям, не включенным в климатический монитор, хранится не более 60 дней. Нет смысла пытаться выбрать более раннюю дату.
*Определитесь, кто Вы:
Внимание! Время в таблицах - местное (без учета летнего времени). Для получения всемирного времени необходимо вычесть поправку, которая равна -5 ч.
Смотрите также архив погоды в соседних городах и на ближайших метеорологических станциях:
Партнеры нашего сайта:      
Пояснения к столбцам:
  • Ветер - указаны скорость ветра в м/с - средняя за 10 мин, порывы в срок и между сроками (в фигурных скобках) и направление, откуда дует ветер: С - северный,
  • СВ - северо-восточный, В - восточный, ЮВ - юго-восточный, Ю - южный, ЮЗ - юго-западный, З - западный, СЗ - северо-западный.
  • Видимость - горизонтальная дальность видимости в метрах или километрах. При видимости от 1 до 10 км при отсутствии осадков обычно наблюдается дымка, при ухудшении видимости до 1 км и менее - туман. В сухую погоду видимость может ухудшаться дымом, пылью или мглою.
  • Явления - указаны атмосферные явления, наблюдавшиеся в срок или в последний час перед сроком; фигурными скобками обозначены явления, наблюдавшиеся между сроками (за 1-3 часа до срока); квадратными скобками обозначены град или гололедные отложения с указанием их диаметра в мм.
  • Облачность - указаны через наклонную черту общая и нижняя облачность в баллах и высота нижней границы облаков в метрах; квадратными скобками обозначены формы облаков: Ci - перистые, Cs - перисто-слоистые, Cc - перисто-кучевые, Ac - высококучевые, As - высокослоистые, Sc - слоисто-кучевые, Ns - слоисто-дождевые, Cu - кучевые, Cb - кучево-дождевые. Подробнее классификацию облаков см. в Атласе облаков (PDF).
  • T - Температура воздуха - температура, измеренная на высоте 2 м над землей.
  • Td - Температура точки росы - температура, при понижении до которой содержащийся в воздухе водяной пар достигнет насыщения.
  • f - Относительная влажность воздуха - влажноcть воздуха, измеренная на высоте 2 м над землей.
  • Te - Эффективная температура - температура, которую ощущает одетый по сезону человек в тени. Характеристика душности погоды. При расчете учитывается влияние влажности воздуха и скорости ветра на теплоощущения человека.
  • Tes - Эффективная температура на солнце - температура, которую ощущает человек, с поправкой на солнечный нагрев. Характеристика знойности погоды. Зависит от высоты солнца над горизонтом, облачности и скорости ветра. Ночью, в пасмурную погоду, а также при ветре 12 м/с и более поправка равна нулю.
  • P - Атмосферное давление - приведенное к уровню моря атмосферное давление.
  • Po - Атмосферное давление - измеренное на уровне метеостанции атмосферное давление.
  • Tmin - Минимальная температура - минимум температуры воздуха на высоте 2 м над землей.
  • Tmax - Максимальная температура - максимум температуры воздуха на высоте 2 м над землей.
  • R - Количество осадков - Количество выпавших осадков за период времени, мм. При наведении курсора мыши на число - период времени, за который выпало указанное количество осадков.
  • R24 - Количество осадков - Количество выпавших осадков за 24 часа, мм.
  • S - Снежный покров - Высота снежного покрова, см. При наведении курсора мыши на число - состояние снежного покрова и степень покрытия местности в баллах.